Waarnemingen

Advertentie
Mijn weer
Palermo/Punta Raisi, Italië (16405): temperatuur & dauwpunt: 08.12.2018 11:00:00 - 14.12.2018 11:00:00 (CET)Palermo/Punta Raisi, Italië (16405): windsnelheid: 08.12.2018 11:00:00 - 14.12.2018 11:00:00 (CET)Palermo/Punta Raisi, Italië (16405): windrichting: 08.12.2018 11:00:00 - 14.12.2018 11:00:00 (CET)Palermo/Punta Raisi, Italië (16405): luchtdruk: 08.12.2018 11:00:00 - 14.12.2018 11:00:00 (CET)Palermo/Punta Raisi, Italië (16405): zicht: 08.12.2018 11:00:00 - 14.12.2018 11:00:00 (CET)Palermo/Punta Raisi, Italië (16405): neerslag: 08.12.2018 11:00:00 - 14.12.2018 11:00:00 (CET)
Datum & Tijd tt [°C] td [°C] ff [km/u] ff [kn] dd ppp [hPa] vv [km] rr [mm]
14.12.2018 11:00:00 18,0 7,0 44 24 Z - 10 -
14.12.2018 10:00:00 17,3 7,3 39 21 Z 1006,5 10 0,0
14.12.2018 09:00:00 17,0 5,0 39 21 Z - 10 -
14.12.2018 08:00:00 17,0 6,0 39 21 Z - 10 -
14.12.2018 07:00:00 16,7 7,2 41 22 Z 1006,1 10 -
14.12.2018 06:00:00 17,0 7,0 48 26 Z - 10 -
14.12.2018 05:00:00 17,0 7,0 31 17 Z - 10 -
14.12.2018 04:00:00 16,2 6,3 31 17 Z 1007,4 - 0,0
14.12.2018 03:00:00 - - - - - - - -
14.12.2018 02:00:00 - - - - - - - -
14.12.2018 01:00:00 16,1 4,6 26 14 Z 1009,1 10 -
14.12.2018 00:00:00 16,0 7,0 16 9 Z - 10 -
13.12.2018 23:00:00 15,0 9,0 24 13 ZZW - 10 -
13.12.2018 22:00:00 15,8 8,7 28 15 ZZW 1010,8 10 0,0
13.12.2018 21:00:00 16,0 8,0 29 16 ZZW - 10 -
13.12.2018 20:00:00 16,0 9,0 26 14 ZZW - 10 -
13.12.2018 19:00:00 15,7 8,9 26 14 Z 1011,0 10 -
13.12.2018 18:00:00 16,0 10,0 26 14 ZZO - 10 -
13.12.2018 17:00:00 16,0 11,0 26 14 ZZW - 10 -
13.12.2018 16:00:00 15,9 11,4 22 12 ZZW 1012,1 10 0,0
13.12.2018 15:00:00 16,0 11,0 29 16 ZW - 10 -
13.12.2018 14:00:00 17,0 9,0 26 14 ZW - 10 -
13.12.2018 13:00:00 16,6 11,1 26 14 WZW 1012,7 10 -
13.12.2018 12:00:00 16,0 11,0 24 13 ZW - 10 -
13.12.2018 11:00:00 15,0 11,0 24 13 ZW - 10 -
13.12.2018 10:00:00 15,4 11,7 22 12 ZZW 1014,1 10 0,0
13.12.2018 09:00:00 14,0 11,0 18 10 ZZW - 10 -
13.12.2018 08:00:00 14,0 11,0 18 10 ZZW - 10 -
13.12.2018 07:00:00 14,3 11,3 21 11 ZZW 1014,2 10 -
13.12.2018 06:00:00 14,0 11,0 22 12 ZZW - 10 -
13.12.2018 05:00:00 14,0 11,0 22 12 ZZW - 10 -
13.12.2018 04:00:00 14,2 10,5 28 15 ZZW 1014,1 10 0,0
13.12.2018 03:00:00 14,0 11,0 24 13 ZZW - 10 -
13.12.2018 02:00:00 13,0 10,0 26 14 ZZW - 10 -
13.12.2018 01:00:00 13,0 9,8 22 12 ZZW 1015,3 10 -
13.12.2018 00:00:00 12,0 11,0 16 9 ZZW - 10 -
12.12.2018 23:00:00 13,0 10,0 18 10 ZZW - 10 -
12.12.2018 22:00:00 13,8 8,4 18 10 ZZW 1016,6 10 0,0
12.12.2018 21:00:00 13,0 8,0 21 11 Z - 10 -
12.12.2018 20:00:00 13,0 8,0 16 9 ZZW - 10 -
12.12.2018 19:00:00 13,4 8,4 18 10 ZW 1017,2 10 -
12.12.2018 18:00:00 15,0 9,0 26 14 W - 10 -
12.12.2018 17:00:00 15,0 9,0 24 13 W - 10 -
12.12.2018 16:00:00 14,7 8,0 22 12 WZW 1017,5 10 0,0
12.12.2018 15:00:00 15,0 8,0 26 14 W - 10 -
12.12.2018 14:00:00 15,0 8,0 34 18 W - 10 -
12.12.2018 13:00:00 14,8 9,1 26 14 W 1017,7 10 -
12.12.2018 12:00:00 14,0 10,0 24 13 ZZW - 10 -
12.12.2018 11:00:00 14,0 10,0 16 9 Z - 10 -
12.12.2018 10:00:00 13,5 8,5 15 8 Z 1019,1 10 0,0
12.12.2018 09:00:00 12,0 8,0 11 6 Z - 10 -
12.12.2018 08:00:00 11,0 6,0 11 6 Z - 10 -
12.12.2018 07:00:00 11,6 6,4 16 9 ZZW 1018,5 10 -
12.12.2018 06:00:00 11,0 7,0 16 9 Z - 10 -
12.12.2018 05:00:00 11,0 7,0 11 6 Z - 10 -
12.12.2018 04:00:00 10,6 6,1 11 6 Z 1018,6 10 0,0
12.12.2018 03:00:00 11,0 6,0 11 6 Z - 10 -
12.12.2018 02:00:00 11,0 6,0 11 6 ZZO - 10 -
12.12.2018 01:00:00 10,8 5,8 13 7 ZZO 1018,8 10 -
12.12.2018 00:00:00 11,0 6,0 13 7 ZZO - 10 -
11.12.2018 23:00:00 11,0 5,0 13 7 Z - 10 -
11.12.2018 22:00:00 10,3 4,9 13 7 Z 1019,2 10 0,0
11.12.2018 21:00:00 11,0 5,0 9 5 Z - 10 -
11.12.2018 20:00:00 12,0 5,0 8 4 Z - 10 -
11.12.2018 19:00:00 12,1 5,8 9 5 Z 1018,6 10 -
11.12.2018 18:00:00 12,0 6,0 11 6 Z - 10 -
11.12.2018 17:00:00 13,0 7,0 11 6 Z - 10 -
11.12.2018 16:00:00 13,7 7,7 26 14 WZW 1018,0 10 0,0
11.12.2018 15:00:00 15,0 7,0 22 12 W - 10 -
11.12.2018 14:00:00 15,0 9,0 21 11 NW - 10 -
11.12.2018 13:00:00 14,8 7,4 21 11 NNW 1017,8 10 -
11.12.2018 12:00:00 15,0 8,0 21 11 WNW - 10 -
11.12.2018 11:00:00 15,0 7,0 21 11 WNW - 10 -
11.12.2018 10:00:00 15,2 6,9 21 11 NW 1018,7 10 0,0
11.12.2018 09:00:00 13,0 8,0 5 3 ZZW - 10 -
11.12.2018 08:00:00 11,0 6,0 15 8 ZZO - 10 -
11.12.2018 07:00:00 13,0 7,1 26 14 N 1017,9 10 -
11.12.2018 06:00:00 15,0 6,0 16 9 N - 10 -
11.12.2018 05:00:00 15,0 9,0 21 11 NW - 10 -
11.12.2018 04:00:00 14,5 7,5 21 11 NNO 1017,2 10 0,0
11.12.2018 03:00:00 15,0 10,0 34 18 NW - 10 -
11.12.2018 02:00:00 15,0 9,0 34 18 NW - 10 -
11.12.2018 01:00:00 15,4 10,1 29 16 WNW 1017,4 10 -
11.12.2018 00:00:00 16,0 9,0 34 18 NW - 10 -
10.12.2018 23:00:00 15,0 8,0 34 18 NW - 10 -
10.12.2018 22:00:00 15,4 9,1 34 18 NW 1017,6 10 0,0
10.12.2018 21:00:00 16,0 9,0 35 19 NW - 10 -
10.12.2018 20:00:00 16,0 10,0 34 18 NW - 10 -
10.12.2018 19:00:00 15,4 9,3 34 18 NW 1017,2 10 -
10.12.2018 18:00:00 16,0 10,0 37 20 NW - 10 -
10.12.2018 17:00:00 16,0 9,0 39 21 NW - 10 -
10.12.2018 16:00:00 15,7 9,6 35 19 NW 1016,9 10 0,0
10.12.2018 15:00:00 16,0 10,0 39 21 WNW - 10 -
10.12.2018 14:00:00 16,0 10,0 37 20 W - 9 -
10.12.2018 13:00:00 15,8 9,7 39 21 WNW 1017,2 10 -
10.12.2018 12:00:00 16,0 10,0 34 18 WNW - 10 -
10.12.2018 11:00:00 16,0 9,0 31 17 WNW - 10 -
10.12.2018 10:00:00 15,7 9,8 34 18 WNW 1018,7 10 0,0
10.12.2018 09:00:00 16,0 10,0 29 16 WNW - 10 -
10.12.2018 08:00:00 16,0 10,0 28 15 WNW - 9 -
10.12.2018 07:00:00 15,7 9,7 34 18 NW 1017,0 10 -
10.12.2018 06:00:00 16,0 9,0 35 19 NW - 10 -
10.12.2018 05:00:00 16,0 10,0 35 19 NNW - 10 -
10.12.2018 04:00:00 16,0 12,0 46 25 W - 10 -
10.12.2018 03:00:00 16,0 13,0 42 23 W - 10 -
10.12.2018 02:00:00 17,0 12,0 46 25 W - 10 -
10.12.2018 01:00:00 16,6 12,1 37 20 W 1017,3 10 -
10.12.2018 00:00:00 17,0 12,0 37 20 W - 10 -
09.12.2018 23:00:00 17,0 13,0 39 21 W - 10 -
09.12.2018 22:00:00 16,3 12,9 31 17 WZW 1019,2 10 0,0
09.12.2018 21:00:00 17,0 13,0 39 21 WZW - 10 -
09.12.2018 20:00:00 17,0 13,0 39 21 WZW - 10 -
09.12.2018 19:00:00 16,4 11,6 34 18 ZW 1018,6 10 -
09.12.2018 18:00:00 17,0 13,0 39 21 WZW - 10 -
09.12.2018 17:00:00 16,0 12,0 39 21 WZW - 10 -
09.12.2018 16:00:00 16,7 11,9 44 24 WZW 1018,2 10 0,0
09.12.2018 15:00:00 17,0 13,0 41 22 WZW - 10 -
09.12.2018 14:00:00 16,0 13,0 44 24 W - 10 -
09.12.2018 13:00:00 16,0 10,5 24 13 ZW 1019,4 10 -
09.12.2018 12:00:00 16,0 10,0 21 11 ZW - 10 -
09.12.2018 11:00:00 15,0 10,0 24 13 ZW - 10 -
09.12.2018 10:00:00 15,3 8,9 21 11 WZW 1021,2 10 0,0
09.12.2018 09:00:00 15,0 9,0 18 10 WNW - 10 -
09.12.2018 08:00:00 15,0 10,0 11 6 NW - 10 -
09.12.2018 07:00:00 15,2 9,2 16 9 WNW 1020,9 10 -
09.12.2018 06:00:00 15,0 9,0 18 10 NW - 10 -
09.12.2018 05:00:00 15,0 9,0 24 13 NW - 10 -
09.12.2018 04:00:00 15,4 9,6 26 14 NW 1020,3 10 0,0
09.12.2018 03:00:00 15,0 9,0 24 13 NW - 10 -
09.12.2018 02:00:00 15,0 10,0 22 12 NW - 10 -
09.12.2018 01:00:00 15,3 9,0 24 13 NW 1020,3 10 -
09.12.2018 00:00:00 15,0 9,0 22 12 NW - 10 -
08.12.2018 23:00:00 16,0 9,0 28 15 NW - 10 -
08.12.2018 22:00:00 15,9 8,6 26 14 NW 1020,2 10 0,0
08.12.2018 21:00:00 16,0 8,0 31 17 NW - 10 -
08.12.2018 20:00:00 16,0 9,0 26 14 WNW - 10 -
08.12.2018 19:00:00 15,9 8,9 26 14 WNW 1018,7 10 -
08.12.2018 18:00:00 16,0 8,0 31 17 WNW - 10 -
08.12.2018 17:00:00 16,0 11,0 29 16 WNW - 10 -
08.12.2018 16:00:00 16,5 11,9 37 20 WNW 1018,0 10 0,0
08.12.2018 15:00:00 16,0 10,0 42 23 W - 10 -
08.12.2018 14:00:00 17,0 11,0 41 22 W - 10 -
08.12.2018 13:00:00 16,9 12,3 35 19 W 1017,9 10 -
08.12.2018 12:00:00 17,0 13,0 39 21 W - 10 -
08.12.2018 11:00:00 17,0 13,0 35 19 W - 10 -

tt = temperatuur
td = dauwpunt
ff = windsnelheid
dd = windrichting
ppp = luchtdruk
vv = zicht
rr = neerslag

Weerstations in de omgeving